Flag for Norway Weather past 2 weeks in Gjøvik, Norway

Now
52 °F

Cool.


Feels Like: 52 °F
Forecast: 52 / 64 °F
Wind: 1 mph from South

Location: Lillehammer-Saetherengen

Current Time: Jul 28, 2015 at 6:41:31 AM

Latest Report: Jul 28, 2015 at 4:00 AM


Visibility: N/A

Pressure: 29.53 "Hg

Humidity: 83%

Dew point: 47 °F

Location of GjøvikLocation

Historic Weather in Gjøvik — Graph

°F

Gjøvik temperature yesterday

Maximum temperature yesterday: 66 °F (at 5:00 PM)
Minimum temperature yesterday: 46 °F (at 5:00 AM)
Average temperature yesterday: 56 °F

Past Weeks' High & Low Weather Summary

 TemperatureHumidityPressure
High72 °F (Jul 22, 4:00 PM)96% (Jul 27, 8:00 AM)30.08 "Hg (Jul 27, 8:00 AM)
Low43 °F (Jul 25, 4:00 AM)35% (Jul 19, 2:00 PM)29.35 "Hg (Jul 26, 10:00 PM)
Average56 °F74%29.68 "Hg
* Reported Jul 13 4:00 AM — Jul 28 4:00 AM, Gjøvik, Weather by CustomWeather, © 2015

Note: Actual official high and low records may vary slightly from our data, if they occured in-between our weather recording intervals... More about our weather records

Advertising

Gjøvik weather history for previous 24 hours

 ConditionsComfort  
Time TempWeatherWind HumidityBarometerVisibility
4:00 AM
Tue, Jul 28
52 °FCool.1 mph83%29.53 "HgN/A
3:00 AM53 °FCool.No wind83%29.50 "HgN/A
2:00 AM53 °FCool.1 mph81%29.50 "HgN/A
1:00 AM55 °FCool.2 mph75%29.50 "HgN/A
12:00 AM56 °FCool.2 mph76%29.50 "HgN/A
11:00 PM
Mon, Jul 27
54 °FCool.2 mph78%29.47 "HgN/A
10:00 PM58 °FCool.2 mph70%29.47 "HgN/A
9:00 PM60 °FCool.2 mph65%29.44 "HgN/A
8:00 PM61 °FCool.3 mph63%29.44 "HgN/A
7:00 PM65 °FMild.2 mph49%29.41 "HgN/A
6:00 PM64 °FMild.3 mph51%29.41 "HgN/A
5:00 PM66 °FMild.3 mph50%29.41 "HgN/A
4:00 PM65 °FMild.5 mph52%29.41 "HgN/A
3:00 PM64 °FMild.3 mph55%29.41 "HgN/A
2:00 PM61 °FRefreshingly cool.5 mph57%29.41 "HgN/A
1:00 PM61 °FCool.1 mph61%29.41 "HgN/A
12:00 PM62 °FCool.2 mph64%29.41 "HgN/A
11:00 AM57 °FCool.2 mph76%29.41 "HgN/A
10:00 AM55 °FCool.1 mph89%29.41 "HgN/A
9:00 AM51 °FCool.1 mph95%29.44 "HgN/A
8:00 AM49 °FCool.1 mph96%29.41 "HgN/A
7:00 AM47 °FCool.1 mph95%29.41 "HgN/A
Weather by CustomWeather, © 2015

See weather overviewHow to use our weather pages